Regional Weather Roundup
Issued by NWS

Home | Current Version | Previous Version | Graphics & Text | Print | Product List | Glossary Off
Versions: 1 2 3 4 5 6 7 8 9 10 11 12 13 14 15 16 17 18 19 20 21 22 23 24 25 26 27 28 29 30 31 32 33 34 35 36 37 38 39 40 41 42 43 44 45 46 47 48 49 50

000
ASUS43 KFSD 231810
RWRSD

WEATHER ROUNDUP FOR SOUTH DAKOTA
NATIONAL WEATHER SERVICE SIOUX FALLS SD
100 PM CDT SAT JUL 23 2016

NOTE: "FAIR" INDICATES FEW OR NO CLOUDS BELOW 12,000 FEET WITH NO
SIGNIFICANT WEATHER AND/OR OBSTRUCTIONS TO VISIBILITY.


SDZ001>005-009-010-012>017-231900-
NORTHWEST AND NORTH CENTRAL SOUTH DAKOTA

CITY           SKY/WX    TMP DP  RH WIND       PRES   REMARKS
BUFFALO          N/A     83  39  21 NW28G36   29.87R
FAITH            N/A     86  52  30 N30G41    29.84R
MOBRIDGE       MOSUNNY   87  72  60 NW15      29.73R
$$

SDZ012>016-024>037-041>051-057-063-072>074-231900-
SOUTHWEST AND SOUTH CENTRAL SOUTH DAKOTA

CITY           SKY/WX    TMP DP  RH WIND       PRES   REMARKS
RAPID CTY ARPT SUNNY     87  46  24 NW24G33   29.95R
PIERRE         SUNNY     93  65  39 W20G26    29.72R HX  95
CUSTER         SUNNY     81  46  29 CALM      30.08R
ELLSWORTH AFB  SUNNY     86  46  24 NW25G36   29.94R
PHILIP         SUNNY     91  62  37 NW23G35   29.81R
PINE RIDGE     SUNNY     88  59  37 N17G26    29.94R
WINNER         FAIR      94  64  37 SW9G18    29.76F HX  95
$$

SDZ004>011-016>023-039-040-231900-
NORTHEAST SOUTH DAKOTA

CITY           SKY/WX    TMP DP  RH WIND       PRES   REMARKS
ABERDEEN       PTSUNNY   83  72  69 SW6       29.75R
WATERTOWN      CLOUDY    83  71  67 S18G26    29.76S
BROOKINGS      CLOUDY    82  74  76 S16G23    29.78R
SISSETON         N/A     82  73  74 SE12      29.74R
$$

SDZ017-020-022-023-036>040-048>070-231900-
SOUTHEAST SOUTH DAKOTA

CITY           SKY/WX    TMP DP  RH WIND       PRES   REMARKS
SIOUX FALLS    CLOUDY    87  72  60 S15G22    29.78F
HURON          SUNNY     88  73  61 S15G22    29.72S HX  95
CHAMBERLAIN    SUNNY     92  70  49 SW15G22   29.74S HX  97
MITCHELL       SUNNY     88  72  58 S12       29.74F
YANKTON        SUNNY     91  72  52 S12       29.75S HX  98
$$

ABBREVIATIONS USED IN REMARKS
   TC - TEMPERATURE IN CELSIUS
  WCI - WIND CHILL INDEX
   HX - HEAT INDEX
  VSB - VISIBILITY




USA.gov is the U.S. government's official web portal to all federal, state and local government web resources and services.